Theta_e
319 319 318 319 319 320 319 319 319 317 318 316 315 315 316 317 318 319 318 319 320 330 336 338 341 338 340 340 342 341 339 342 341 336 331 333 343 346 337 331 329 324 318 313 312 312 313 314 315 317 319 320 321 320 318 317 317 318 319 321 323 325 327 328 331 332 332 332 332 331 331 331 332 332 333 333 332 328 319 314 311 314 322 323 324 324 326 329 328 328 327 327 326 324 321 317 316
319 318 318 319 318 320 319 319 319 317 317 315 315 316 316 317 318 319 319 318 320 323 324 333 338 336 339 340 341 341 342 345 343 340 334 337 346 344 335 332 329 324 319 313 312 313 313 314 315 317 319 321 321 320 318 317 318 319 319 321 323 325 326 329 331 332 332 332 332 331 331 331 332 333 333 332 331 328 319 314 312 314 322 325 325 326 326 327 327 326 325 323 321 318 316 315 316
318 318 318 318 319 318 319 318 318 316 315 314 315 317 316 317 319 318 319 318 318 319 320 327 329 331 336 336 338 339 342 346 345 343 340 342 347 342 335 332 329 324 318 313 312 313 313 314 315 318 319 321 321 319 318 318 319 320 321 322 324 325 327 330 331 331 333 333 333 332 332 332 333 333 332 331 329 327 320 314 312 313 321 325 325 326 326 326 325 323 320 317 315 314 315 315 315
317 317 317 318 318 318 320 319 318 316 314 314 315 316 317 318 318 318 319 318 317 318 321 327 326 330 334 332 337 340 342 345 345 345 344 344 345 341 336 332 328 324 318 314 312 313 314 314 316 318 319 320 320 318 317 318 320 321 322 323 325 326 329 330 330 332 333 334 333 333 333 333 333 332 331 330 327 327 323 315 312 314 321 324 324 325 325 324 322 320 316 314 313 314 314 314 313
316 317 317 317 319 318 318 317 316 316 315 316 316 317 318 318 318 318 317 317 318 318 319 324 326 332 339 338 340 344 344 345 346 345 344 344 343 340 336 332 327 323 318 314 312 313 314 314 316 318 319 319 319 318 317 318 320 322 323 325 327 328 329 329 331 333 334 334 334 333 334 333 332 331 329 327 326 328 324 315 313 315 319 321 323 324 324 322 320 317 314 313 313 314 314 313 313
315 316 316 317 318 317 317 315 315 315 317 318 317 318 318 318 318 317 316 317 318 318 319 321 322 329 342 343 342 345 345 346 347 346 344 344 343 338 335 330 326 323 317 313 312 313 314 314 316 317 318 318 318 318 317 318 320 322 325 327 328 328 328 329 332 334 334 333 333 334 333 332 331 329 327 325 325 327 321 314 314 313 314 319 322 323 322 320 317 314 313 314 314 314 314 314 314
315 316 316 318 317 317 318 316 315 316 317 317 317 318 318 318 317 317 317 318 318 320 321 319 324 327 336 341 342 346 345 347 347 346 345 344 341 337 333 329 325 323 316 313 313 313 314 314 315 317 318 318 318 318 317 318 321 324 326 328 328 328 327 330 333 334 334 333 333 333 332 330 328 326 324 322 321 321 315 311 314 312 311 316 321 321 321 318 315 313 314 315 315 315 315 315 315
314 316 316 318 317 316 317 316 316 317 316 314 316 317 317 319 317 317 318 318 317 319 319 319 328 327 330 338 343 347 346 347 347 345 345 344 340 335 332 327 324 322 316 313 313 313 314 314 315 316 317 318 319 319 317 318 321 324 326 327 327 327 327 330 333 334 334 333 333 332 330 328 326 324 320 316 314 312 309 311 313 312 309 313 318 320 319 317 313 313 315 316 317 317 316 317 318
314 316 316 318 317 315 315 315 315 315 315 315 315 315 316 317 316 317 317 317 316 317 318 318 327 325 330 342 345 346 347 348 347 345 346 343 338 333 329 326 324 321 316 313 313 313 314 314 315 316 318 319 320 319 317 317 321 323 326 327 326 326 328 331 332 333 333 333 333 331 329 327 325 322 316 310 308 308 308 311 313 311 309 310 316 318 318 316 313 313 316 317 318 318 318 319 321
314 315 316 317 316 315 314 314 315 314 315 315 315 316 316 317 316 317 316 317 316 316 317 317 324 325 331 345 346 345 347 348 346 345 345 342 335 330 327 325 324 321 316 314 313 313 314 314 314 317 319 320 320 319 317 317 320 322 325 326 326 326 329 331 333 333 333 333 332 330 328 326 324 321 315 308 307 308 309 312 312 310 309 309 313 316 317 315 312 312 315 317 318 320 321 322 323
315 315 315 316 315 314 314 314 315 315 315 314 314 316 317 317 315 316 316 316 316 315 317 320 325 331 339 347 345 343 346 347 345 345 345 341 333 328 328 326 324 321 317 315 313 314 314 314 315 319 321 321 320 318 316 317 319 321 325 326 326 328 330 332 333 334 334 333 332 330 328 325 323 320 315 308 307 308 309 312 312 309 309 309 311 313 314 314 312 312 316 319 320 322 323 324 325
315 315 315 316 315 315 315 315 316 316 315 313 315 317 317 316 315 317 317 316 316 315 317 320 322 329 342 347 343 342 346 347 345 345 345 340 333 331 331 328 325 321 319 317 315 315 315 316 319 324 324 321 320 318 316 317 318 321 325 326 327 328 330 332 333 334 333 332 330 329 326 323 322 320 315 308 308 308 309 312 311 309 309 309 309 311 312 312 311 311 316 319 320 323 325 325 325
314 315 315 315 315 315 315 315 315 317 316 315 316 317 317 315 316 317 316 315 314 314 316 321 321 327 344 345 342 342 345 346 345 346 345 340 335 334 334 331 328 322 320 320 318 316 316 317 321 327 326 321 319 318 317 316 318 321 326 327 327 329 330 332 333 333 332 331 330 327 323 321 320 319 314 308 308 308 310 312 311 310 310 309 309 309 309 310 310 311 315 319 321 323 325 325 325
314 315 316 315 314 315 315 314 314 316 316 316 316 317 317 315 317 316 316 315 315 318 322 327 325 328 343 343 341 341 343 346 345 346 346 342 337 337 336 332 328 324 322 322 322 319 316 316 319 323 325 322 320 319 317 316 318 322 326 327 328 330 332 333 332 332 331 330 328 324 320 318 319 318 312 308 308 308 310 311 310 310 310 310 309 308 308 308 309 310 314 318 321 323 325 325 325
313 314 316 316 314 314 314 315 315 315 315 316 316 317 316 316 316 315 315 316 321 328 331 333 329 330 341 341 341 340 341 346 346 346 347 343 339 338 336 332 329 327 325 325 326 322 316 316 317 318 320 321 319 318 317 316 318 322 326 327 330 332 333 333 332 331 330 329 325 321 317 315 317 315 311 308 308 309 310 311 310 310 311 310 310 309 309 308 308 310 314 317 320 323 325 326 325
313 314 315 315 313 313 313 315 315 315 315 315 317 316 315 316 315 316 320 321 329 336 336 338 334 335 342 341 338 335 339 346 346 347 346 343 340 338 336 332 330 329 328 329 329 324 318 316 317 316 318 319 317 317 316 317 318 322 326 328 331 333 333 333 332 331 329 325 321 317 314 314 315 313 309 308 308 309 310 310 310 311 311 311 311 310 310 309 308 309 312 316 319 321 323 325 326
313 314 315 314 313 313 314 314 314 315 315 315 315 314 315 316 317 324 327 326 334 341 340 341 340 339 341 343 341 336 340 346 346 347 345 342 340 336 333 330 330 332 330 328 328 325 320 315 315 316 318 317 318 317 315 319 319 322 327 328 332 334 333 333 331 330 327 320 317 315 314 313 313 310 308 308 308 309 309 311 310 311 311 311 311 311 311 310 310 309 311 314 316 318 320 322 324
313 314 314 313 314 313 314 315 314 316 316 316 315 314 316 314 320 331 332 336 341 343 344 343 343 343 340 342 343 338 341 346 347 346 344 342 339 335 333 332 334 335 330 327 326 323 320 316 314 317 319 317 318 317 318 322 322 324 330 331 335 335 333 333 331 329 324 319 318 315 312 312 311 308 308 308 308 309 309 311 311 311 312 312 312 312 312 312 311 311 311 312 313 314 315 318 320
313 314 314 313 314 314 314 316 314 316 316 317 316 314 317 313 322 327 328 343 345 344 346 344 344 344 341 343 342 340 343 346 347 346 345 342 339 337 336 337 338 336 332 331 329 322 318 315 314 317 319 318 317 317 319 322 321 325 331 334 336 335 334 333 330 327 323 322 320 313 311 310 309 308 308 308 308 309 310 311 312 312 313 313 313 313 313 313 312 312 312 312 312 312 313 314 316
313 313 313 313 314 313 314 315 314 316 316 318 317 313 315 314 318 318 322 341 345 343 346 344 344 343 342 343 341 341 344 346 347 346 344 342 341 341 342 343 341 338 337 336 330 322 317 314 314 317 319 318 317 318 319 321 321 323 331 335 336 335 334 332 329 325 324 326 320 312 311 310 310 309 308 308 308 309 310 311 312 313 313 314 314 314 314 314 313 313 314 314 313 313 313 313 313
312 312 313 313 313 313 313 314 314 316 316 317 316 313 314 314 315 317 327 337 339 342 340 338 341 341 341 342 341 342 345 346 346 345 344 343 343 344 345 344 342 341 339 334 328 321 315 313 315 317 318 318 317 317 318 321 322 324 333 337 336 336 334 331 328 324 327 329 321 313 313 314 314 311 309 309 308 308 310 311 313 313 314 314 314 314 315 315 315 315 315 316 316 315 316 315 315
312 312 313 313 313 314 313 313 314 314 315 314 314 314 314 317 321 323 327 326 327 334 332 330 334 335 339 341 341 343 344 345 345 344 344 344 344 344 344 343 341 338 335 333 328 320 314 312 315 317 318 318 318 317 319 322 323 328 335 337 336 336 333 329 325 324 329 330 324 319 321 322 320 318 315 314 311 310 310 311 312 313 314 315 315 315 315 315 315 314 315 315 315 315 315 316 317
312 312 313 312 312 314 314 313 314 313 314 313 313 314 314 318 325 327 325 321 323 329 329 332 335 336 339 340 341 343 343 345 345 344 344 344 344 345 344 342 339 336 335 333 327 319 313 313 315 317 318 318 317 319 323 327 328 332 336 336 336 334 332 328 324 327 331 331 327 325 326 326 324 323 322 321 320 319 319 319 318 318 319 321 321 321 322 321 320 319 319 318 319 319 319 320 322
311 312 312 312 312 313 314 314 314 313 312 313 313 314 314 314 320 329 330 326 328 330 330 336 339 340 341 340 341 342 343 344 344 344 344 344 344 345 344 341 338 337 336 333 327 320 315 313 315 317 318 317 319 324 331 333 333 335 336 335 334 333 330 327 327 332 333 330 328 326 327 327 326 325 326 326 326 327 328 328 327 327 327 328 329 329 329 329 328 328 328 328 328 328 328 328 329
311 311 312 313 312 312 313 313 313 313 312 313 312 313 315 312 315 326 331 327 330 333 332 338 342 342 341 341 341 342 343 343 343 344 343 343 342 343 341 339 338 338 337 336 331 325 318 314 315 317 319 318 322 330 334 335 335 335 336 334 333 332 330 327 331 335 333 331 329 327 328 328 327 327 328 330 330 330 331 331 331 331 331 331 331 331 332 332 332 332 331 331 331 331 330 330 330
311 311 312 313 313 313 313 313 313 313 313 313 313 313 314 313 314 322 327 324 327 332 335 340 343 343 342 341 341 341 342 342 343 344 343 341 341 341 339 338 339 339 338 339 337 332 322 315 314 317 319 319 324 331 334 335 335 335 335 334 332 332 329 327 333 335 333 332 331 329 328 327 328 329 329 331 331 331 331 331 332 331 332 332 332 332 332 333 332 332 331 331 331 330 330 329 329
311 312 312 312 313 313 313 313 313 313 313 313 313 313 313 314 313 320 331 327 326 334 339 341 343 343 342 342 341 341 343 343 344 343 342 341 341 340 339 338 339 339 339 340 339 334 323 315 314 317 320 322 326 331 334 334 334 333 334 333 332 332 328 328 334 335 334 333 331 330 328 326 328 330 331 331 331 332 332 332 332 332 332 332 332 332 332 332 332 331 331 330 330 329 328 327 328
310 311 312 312 313 314 314 313 313 313 314 313 315 314 314 317 316 319 332 333 334 340 340 342 344 343 343 342 341 341 342 343 343 342 343 342 342 342 340 339 339 339 339 340 339 333 324 317 314 316 319 323 325 330 333 333 333 332 334 333 332 332 328 330 334 335 335 334 332 330 328 326 327 329 332 333 332 333 333 333 332 332 333 332 332 332 332 332 331 331 330 329 329 328 327 327 327
310 311 311 311 312 312 313 313 313 312 314 314 315 315 313 320 320 318 328 336 341 343 342 342 343 344 343 342 342 341 342 342 341 342 343 343 343 343 342 341 340 339 339 340 338 332 326 319 316 316 318 322 324 328 333 333 333 333 333 333 333 331 329 332 334 334 335 335 334 333 330 327 325 326 331 334 333 333 333 333 333 332 333 333 332 332 332 331 330 330 329 329 329 328 328 328 327
310 310 310 311 311 312 312 314 313 312 314 313 314 313 312 318 320 323 333 340 343 344 344 344 343 344 343 342 342 342 342 342 341 343 343 343 344 344 343 343 340 339 339 340 338 332 328 324 320 317 316 323 325 327 332 333 332 332 332 332 332 330 330 332 333 334 336 335 334 332 329 327 325 326 331 334 333 333 333 333 334 333 333 332 332 332 331 331 330 330 329 329 329 328 328 328 328
310 310 310 310 311 312 312 313 313 313 313 313 314 311 312 315 317 330 340 342 343 343 344 344 343 344 342 343 342 342 342 342 342 343 344 343 344 344 344 343 340 339 340 341 338 333 330 328 324 320 317 322 327 328 331 332 332 332 332 331 330 330 330 331 334 335 336 334 331 329 328 327 326 327 331 333 333 333 333 333 334 333 332 332 332 332 331 330 330 330 330 329 328 328 328 328 327
310 310 310 310 310 311 311 313 313 313 312 312 313 312 314 313 315 332 342 341 343 343 343 343 343 343 342 342 342 342 342 341 341 342 343 343 343 344 344 343 340 340 342 341 339 334 332 331 328 325 320 320 326 329 329 330 332 332 332 331 330 330 331 333 335 336 335 332 330 330 331 331 330 331 333 334 333 333 333 333 334 333 333 333 333 332 331 331 330 330 329 328 328 328 328 328 328
309 310 311 310 310 310 310 312 313 314 313 311 313 313 315 313 318 335 342 340 342 342 343 343 342 343 342 342 341 341 341 340 340 341 342 342 342 344 344 343 340 340 342 341 340 336 334 333 330 328 325 321 323 327 329 330 331 332 332 331 332 333 333 335 335 334 334 332 331 331 333 334 334 334 334 334 334 333 333 333 334 333 333 333 333 332 332 331 330 330 329 328 328 328 328 328 327
310 310 310 310 310 310 310 310 311 313 313 312 313 313 316 319 325 339 341 340 342 341 342 342 342 342 341 341 341 341 341 340 340 340 341 341 342 343 343 341 340 341 342 341 340 337 335 334 332 330 328 324 321 322 327 329 329 332 332 331 333 335 335 335 334 333 333 332 331 331 332 334 335 334 334 334 333 333 332 333 333 334 334 334 333 332 332 331 331 329 328 328 328 327 327 326 326
311 310 310 310 309 310 310 310 311 312 313 312 314 312 316 326 332 339 341 340 341 341 341 341 342 342 341 341 341 341 341 340 340 340 340 340 341 342 342 341 340 341 342 341 339 337 335 334 333 331 330 328 324 320 324 327 330 332 332 332 334 335 335 335 334 333 333 332 332 332 332 334 334 334 334 333 332 332 332 333 333 334 334 334 333 332 332 331 330 329 328 328 327 326 325 324 324
310 310 309 309 309 310 310 310 310 312 313 312 314 313 315 329 334 336 340 340 340 341 341 341 342 342 341 341 341 341 340 340 341 340 340 341 340 341 341 341 340 341 341 340 339 338 336 335 334 333 332 332 329 324 323 325 330 332 332 333 334 334 334 334 333 333 333 333 333 333 332 334 334 334 333 332 332 332 332 332 333 333 333 333 332 332 331 330 329 328 328 326 325 325 324 323 323
309 310 309 309 309 310 310 310 310 311 314 312 313 314 313 326 333 335 340 340 339 341 341 341 341 341 342 341 341 341 341 341 340 340 340 340 340 340 341 340 340 341 341 340 339 337 336 335 334 334 334 335 333 328 322 324 330 332 333 335 334 334 334 334 333 333 333 333 333 333 333 334 334 333 333 332 331 332 332 332 332 332 332 332 332 331 330 329 328 327 326 324 324 323 323 321 320
309 309 310 309 309 310 309 310 310 310 313 312 312 313 312 324 332 335 339 339 338 340 341 341 341 341 342 341 341 341 341 341 340 340 340 339 339 340 340 340 339 341 341 340 338 336 336 336 335 335 336 336 335 328 322 327 332 333 334 335 334 334 334 333 334 334 334 334 334 333 334 335 334 333 332 332 332 332 332 332 332 332 332 332 331 330 329 328 327 326 324 323 322 322 320 318 317
308 309 310 310 309 310 309 309 310 309 311 312 312 312 312 323 332 334 337 338 337 339 340 340 340 341 341 341 341 341 341 341 341 341 340 338 338 339 340 340 339 340 341 340 339 337 337 337 336 336 337 337 333 327 327 332 334 334 334 334 334 334 334 334 334 334 334 334 334 335 335 335 334 333 333 333 333 333 332 332 332 332 332 331 330 329 328 328 326 325 323 322 321 319 318 316 315
308 308 310 310 309 310 309 309 309 309 314 313 310 312 315 324 332 333 336 339 338 339 340 339 339 340 340 340 341 341 341 341 341 341 339 338 337 338 340 339 339 340 340 340 339 339 338 338 338 337 338 336 330 327 331 335 334 334 334 333 334 334 334 334 334 334 334 334 334 335 335 334 334 334 333 333 333 332 332 332 332 331 331 330 329 328 327 327 325 323 321 320 318 317 315 314 314
309 308 309 310 309 309 310 311 310 312 318 315 311 313 317 326 332 333 336 340 339 339 341 340 340 340 339 340 340 340 341 341 341 340 338 338 338 338 338 339 340 341 341 340 340 339 338 338 339 338 337 334 329 329 333 334 334 334 333 332 333 334 334 334 333 333 333 334 334 334 334 334 334 333 333 332 331 331 331 331 331 330 330 329 328 327 326 324 322 320 318 317 315 314 314 313 312
309 308 308 309 309 310 310 311 312 312 316 316 314 313 317 327 331 331 335 339 340 340 340 341 340 340 340 339 339 340 340 341 340 340 338 338 337 337 337 338 339 340 340 340 339 339 339 339 339 338 336 333 331 332 333 334 333 332 332 332 333 334 334 333 333 332 333 334 334 333 333 333 333 332 332 332 331 331 331 331 330 330 329 328 327 326 324 321 318 317 315 315 314 313 312 311 310
308 309 308 307 308 310 310 311 312 311 313 318 317 312 319 330 331 331 335 337 339 340 339 340 340 339 339 339 339 339 340 340 340 340 339 338 337 337 336 337 338 338 338 338 338 339 340 340 339 338 336 334 333 333 333 333 332 331 332 333 333 333 333 333 333 333 333 334 333 333 333 333 332 332 332 331 331 330 330 330 330 330 328 326 326 324 321 318 316 315 314 313 312 311 310 309 308
308 309 308 307 308 309 310 310 311 312 314 319 321 315 318 327 329 331 334 334 337 338 337 339 340 339 339 339 339 339 339 339 340 340 340 340 339 337 337 337 336 336 336 337 337 338 340 340 339 339 337 335 334 334 334 333 332 332 333 333 333 334 333 333 333 333 333 333 333 332 332 332 332 331 331 330 330 330 330 330 330 329 327 325 323 320 317 316 315 314 312 311 310 309 308 305 304
308 308 308 308 309 309 309 310 310 312 313 317 322 319 314 322 331 333 334 334 334 336 335 336 338 339 338 338 339 339 339 339 340 340 340 341 340 339 338 336 335 334 336 336 337 338 340 340 340 339 337 336 336 335 334 333 333 334 334 334 333 334 334 334 334 334 334 333 332 332 331 331 331 330 330 329 329 329 329 330 328 327 324 322 319 316 315 314 313 312 310 309 307 305 303 302 301
308 307 307 308 309 309 309 310 311 312 312 315 322 320 312 321 333 334 334 335 333 334 334 334 336 338 338 338 338 339 339 339 339 340 340 340 340 339 338 336 333 333 335 336 336 338 339 340 339 338 337 336 335 334 334 333 334 334 334 334 334 334 334 334 334 334 334 332 331 331 331 331 330 329 329 328 329 329 329 328 326 323 320 318 316 314 314 312 311 309 308 306 304 301 300 300 300
307 307 308 308 308 309 310 311 311 312 312 313 320 322 314 317 328 333 334 334 332 332 334 334 336 337 338 338 338 338 339 339 339 339 339 340 339 338 337 335 334 334 335 335 336 338 339 338 338 337 336 334 333 333 333 334 334 334 334 334 334 334 333 333 334 334 333 332 331 331 331 330 329 328 328 328 328 328 327 325 322 319 316 315 314 313 311 310 308 307 305 302 300 300 299 299 299
307 308 309 310 310 310 310 311 311 312 313 311 316 322 316 313 322 330 333 332 331 332 333 334 335 336 337 337 337 338 338 338 338 339 339 338 338 337 336 335 334 334 335 334 337 339 338 337 337 335 334 334 334 333 333 333 333 333 334 334 334 334 333 333 333 333 333 332 331 331 330 329 328 328 327 327 328 326 324 321 318 316 314 313 312 310 309 307 306 303 301 300 299 299 299 299 299
307 308 309 310 311 310 311 311 311 312 312 310 313 320 319 315 320 328 331 332 332 333 334 334 335 336 337 337 337 338 337 338 338 338 338 338 338 337 336 335 334 334 334 335 337 339 338 337 336 335 333 334 334 333 332 332 332 332 334 334 333 332 332 333 333 333 333 332 331 331 329 328 328 328 327 327 326 324 320 317 315 313 312 311 309 308 307 305 302 300 299 299 299 299 298 298 299
308 308 309 311 311 311 312 312 311 311 311 310 313 319 319 316 318 324 329 332 332 334 335 335 336 337 337 337 337 338 337 337 337 337 338 337 337 337 336 335 334 334 334 335 336 338 338 338 336 334 333 333 334 333 331 331 332 332 333 334 333 332 332 333 333 333 332 331 330 329 329 328 328 328 327 326 324 321 317 314 313 312 310 309 307 306 304 301 300 299 299 299 299 298 298 298 298
308 308 309 311 311 312 312 311 311 312 313 312 314 317 317 315 317 322 328 331 333 335 335 335 336 336 336 337 337 337 337 336 336 336 337 337 337 336 335 335 334 334 334 334 336 337 337 337 336 334 333 332 333 333 333 332 332 332 333 334 333 332 333 333 333 332 331 331 330 329 329 328 328 327 326 325 323 318 314 313 311 310 308 307 305 303 301 299 299 298 298 298 298 298 298 298 298
307 307 308 310 311 312 312 311 313 314 314 315 315 316 316 316 319 323 326 329 332 333 334 335 335 336 336 336 336 337 337 336 336 336 336 336 336 335 335 335 335 334 334 334 334 336 336 335 335 334 333 333 334 334 333 332 332 332 333 333 332 333 333 332 332 332 331 331 330 329 329 328 327 326 325 324 320 315 312 311 309 307 306 304 302 300 299 298 298 298 298 298 298 298 298 298 297
308 307 308 309 310 312 313 311 313 314 313 315 315 315 316 317 320 324 325 326 329 331 331 333 335 336 337 337 337 337 337 336 336 335 335 335 335 335 335 335 335 335 334 333 334 334 334 334 334 334 334 334 334 333 333 332 332 332 332 331 330 332 333 332 332 331 331 331 330 329 328 328 327 325 324 322 317 312 310 309 307 305 304 302 300 299 298 298 298 298 298 298 298 297 297 297 297
308 307 309 309 308 311 313 312 312 312 312 314 314 315 319 316 318 327 328 326 329 330 329 332 335 337 337 337 337 337 337 336 336 335 335 334 335 335 335 335 335 334 334 333 333 333 334 334 334 334 335 334 333 333 332 332 332 332 331 330 330 331 332 332 331 331 331 331 330 328 327 327 326 324 323 319 313 310 308 306 305 303 302 300 299 298 298 297 297 298 297 297 297 297 297 297 297
307 308 309 310 310 311 312 313 313 313 312 314 314 317 320 315 317 327 329 327 330 331 329 330 333 336 338 337 337 337 337 336 336 336 335 334 334 335 335 334 335 334 334 334 333 333 333 334 333 334 334 333 333 333 332 332 333 332 331 331 330 330 331 332 331 330 330 330 329 328 327 326 325 323 320 316 310 308 306 304 303 301 300 299 298 298 298 297 297 297 297 297 297 297 297 297 297
307 309 308 309 311 311 312 312 313 313 313 313 315 317 318 316 319 327 329 328 330 332 331 332 333 336 338 337 337 337 336 336 336 337 335 334 334 334 334 335 335 334 334 334 334 333 333 334 334 334 333 333 333 333 332 332 332 331 331 332 332 331 331 331 331 331 330 329 327 326 326 325 323 321 318 312 308 305 304 302 301 300 299 298 298 298 297 297 297 297 297 297 296 296 297 297 297
307 309 309 309 309 310 312 312 311 312 313 313 316 317 316 319 323 326 329 330 331 331 332 333 334 337 337 337 337 337 336 336 336 337 336 334 334 335 335 335 334 334 334 334 334 334 334 334 334 333 333 333 333 333 332 331 331 331 331 332 331 331 331 329 330 330 328 327 326 325 325 323 322 320 315 309 305 303 302 301 300 299 298 298 297 297 297 297 297 297 297 296 296 296 297 297 296
308 309 309 309 310 310 311 312 311 311 312 314 316 316 315 321 325 326 328 329 330 331 332 334 336 337 337 336 337 336 336 336 336 337 336 335 335 335 335 335 335 334 334 334 335 334 334 334 333 333 333 333 333 332 331 330 330 331 331 331 329 330 330 329 329 328 327 326 325 324 323 322 320 317 312 306 303 302 300 300 299 298 298 298 297 297 297 297 296 296 296 296 296 296 296 296 296
Wind_Speed
7 7 8 8 10 10 8 8 3 1 1 1 1 1 2 1 1 2 4 4 2 3 6 2 4 4 2 1 2 0 2 2 2 2 2 4 4 10 22 29 28 27 25 25 24 22 21 20 20 20 19 19 18 17 16 16 16 16 16 16 16 15 14 13 12 12 12 12 11 10 10 9 9 8 7 6 7 7 8 8 8 10 11 12 13 14 14 13 13 14 15 15 15 15 15 15 15
8 7 8 8 9 8 5 5 1 0 2 2 0 3 1 1 1 4 5 4 2 5 8 5 3 2 2 1 1 2 2 3 4 4 3 5 4 16 25 29 28 27 25 25 24 23 22 21 21 20 19 19 18 18 17 16 17 16 16 16 15 15 14 13 12 12 12 12 11 10 10 9 8 7 6 6 6 6 7 8 8 10 12 12 13 14 14 14 14 15 15 15 15 15 16 16 15
9 8 7 7 6 6 3 3 0 0 1 3 2 3 1 1 1 5 4 2 4 8 8 6 7 5 3 2 1 1 2 3 4 3 3 3 11 22 26 29 27 25 25 24 24 23 22 22 22 21 20 19 19 18 17 17 17 17 16 16 15 14 13 12 12 12 12 12 11 10 10 9 8 7 6 6 5 5 7 9 9 11 12 13 13 14 14 14 14 15 15 14 15 16 17 16 15
10 8 7 5 4 3 2 1 0 1 2 2 2 3 3 1 1 2 4 4 6 9 5 2 3 3 5 5 3 2 2 2 3 3 3 5 15 22 27 29 27 25 25 23 23 23 22 23 22 22 21 20 19 19 18 18 18 17 16 16 15 14 13 13 12 12 12 11 11 10 10 9 8 7 6 5 4 5 6 8 9 10 11 12 13 14 15 15 14 14 14 14 15 16 16 16 15
9 8 6 5 3 1 2 1 1 2 3 1 2 1 3 2 2 2 3 6 6 6 2 1 2 3 4 4 3 2 1 1 1 3 3 9 18 22 28 29 27 25 23 22 22 22 22 22 22 22 21 20 20 19 19 19 18 17 16 16 15 14 13 13 12 12 12 11 11 10 10 9 8 7 6 5 5 6 6 8 8 9 10 12 14 14 15 15 15 14 14 14 16 16 15 15 15
7 5 4 3 1 3 2 1 2 3 3 2 4 4 1 3 3 2 1 4 4 2 2 2 3 4 3 3 3 3 3 1 2 1 6 13 20 23 27 28 26 24 23 22 21 21 22 22 22 22 22 21 20 20 20 19 18 17 16 15 14 14 13 12 12 12 12 11 11 11 10 9 8 7 6 4 5 6 6 7 9 10 11 13 14 14 14 14 14 13 14 15 16 15 15 14 14
6 3 1 1 2 2 2 3 4 4 3 3 4 5 4 4 4 3 1 3 2 5 3 2 3 3 3 3 2 4 4 2 2 1 8 15 21 23 26 27 25 23 22 22 21 21 22 22 22 22 22 21 21 20 20 19 18 17 16 15 14 14 13 12 12 12 12 11 11 11 10 9 8 7 6 4 5 6 6 8 10 11 12 13 14 14 14 14 13 13 15 15 15 15 14 14 13
6 5 2 2 0 1 1 3 4 3 1 2 4 6 6 7 7 6 4 4 2 1 2 4 3 3 4 6 2 2 4 1 1 3 10 17 22 23 26 27 25 24 22 21 21 21 21 21 21 21 22 21 21 21 20 19 18 17 16 15 15 14 13 12 12 12 12 11 11 11 10 8 7 6 5 5 5 5 6 9 11 12 12 13 14 14 14 14 13 13 14 14 14 13 13 12 12
7 5 2 2 2 1 2 2 3 2 3 4 5 7 9 10 6 5 5 4 4 3 3 3 3 4 3 6 3 3 3 1 2 7 13 18 21 23 26 26 24 23 22 21 21 21 20 20 20 21 22 22 22 21 20 20 19 18 16 15 14 14 13 12 12 12 12 12 12 11 9 8 7 6 5 5 5 6 7 10 12 13 13 13 14 14 14 14 13 14 14 14 13 12 12 11 10
7 6 3 1 2 3 4 3 2 2 4 5 6 11 12 11 5 3 5 4 4 5 4 4 5 6 4 3 2 4 4 3 5 9 15 19 22 24 25 24 22 21 20 20 20 20 20 20 20 21 22 22 22 21 21 20 19 18 16 16 14 13 12 12 13 12 12 12 11 10 8 7 6 5 5 5 6 7 8 10 13 13 13 13 14 14 14 13 13 13 13 13 12 11 10 9 7
6 4 4 2 4 5 5 5 5 3 4 3 6 14 17 13 5 3 5 4 5 6 5 4 4 6 4 1 1 4 6 7 7 11 17 21 23 24 25 23 22 20 19 19 19 20 20 21 22 23 23 22 22 21 21 21 20 18 17 15 14 13 12 12 13 13 13 12 11 9 8 6 5 5 5 5 6 7 8 10 13 13 13 13 14 14 14 13 13 13 13 12 11 10 9 7 6
6 3 4 4 5 6 6 6 7 5 4 3 4 12 15 9 3 5 5 3 3 5 7 5 4 4 3 1 2 5 9 10 10 14 20 23 25 25 25 23 22 21 20 20 20 20 21 22 23 23 22 22 22 21 21 21 19 18 16 15 14 13 13 13 13 13 13 12 10 8 7 6 5 5 5 5 6 7 9 11 13 13 13 13 14 14 14 13 13 13 13 12 11 9 8 6 5
8 4 5 5 4 4 6 5 5 5 5 5 6 11 11 5 5 7 4 3 3 3 6 5 7 6 2 1 2 8 12 14 15 17 22 24 26 26 25 23 22 22 21 21 21 21 22 23 23 22 21 21 21 21 21 20 19 18 16 15 14 13 13 14 14 13 12 11 9 8 7 6 6 5 5 5 6 7 9 11 13 13 13 13 13 14 13 13 13 14 13 12 11 9 8 6 5
11 7 7 3 2 4 6 5 3 5 5 5 9 14 12 5 4 5 2 3 3 3 5 5 8 8 3 2 4 13 17 16 18 20 24 26 26 27 24 23 22 22 23 22 21 21 22 23 24 23 21 21 21 21 20 20 20 18 16 15 14 14 14 14 13 12 11 10 9 7 7 7 6 6 6 6 7 8 9 12 13 13 12 12 12 13 13 13 13 13 13 12 11 9 8 7 6
14 9 5 2 3 4 7 6 5 8 6 5 10 14 12 7 6 5 3 5 2 3 4 3 7 6 3 6 8 14 20 19 21 24 26 27 27 26 24 23 23 24 24 22 21 21 23 24 25 25 24 23 23 22 21 20 20 18 17 16 15 14 14 14 13 12 11 9 8 7 7 7 7 6 6 6 7 8 10 12 13 13 12 12 12 11 11 11 12 12 12 11 11 9 8 7 6
16 9 2 4 6 6 7 6 6 7 4 5 11 11 6 4 5 5 4 4 2 3 3 4 10 8 4 8 10 11 19 22 23 26 28 28 28 26 25 25 24 24 24 22 21 22 23 24 24 25 25 25 24 23 22 21 20 19 17 16 15 14 14 13 12 11 10 8 8 7 7 8 8 7 7 7 7 8 10 12 13 13 13 12 11 11 10 10 10 11 11 11 10 10 9 8 8
14 8 4 6 7 8 8 8 7 5 4 7 11 11 5 3 4 3 3 5 5 3 4 6 10 11 9 9 9 8 19 23 25 28 29 29 29 28 27 27 26 25 23 22 22 22 22 23 24 25 26 25 24 24 23 21 20 20 18 16 15 14 14 13 12 11 9 9 8 7 8 9 9 8 8 8 8 9 10 12 13 13 13 12 12 11 10 9 9 9 10 11 10 10 9 9 9
11 5 7 9 7 8 10 10 8 5 6 8 11 14 11 6 6 7 5 5 6 5 3 5 7 10 11 9 5 10 21 25 28 31 32 32 31 30 29 28 27 25 24 23 23 22 21 23 24 25 25 25 25 24 22 20 20 20 18 16 15 15 14 13 12 10 10 9 9 8 9 9 9 9 8 8 9 10 11 12 13 13 13 12 12 11 10 10 9 8 8 9 9 10 10 10 10
11 3 7 10 7 8 11 13 11 8 8 9 11 17 15 9 10 11 6 4 6 5 3 3 5 7 10 8 7 15 23 27 31 33 34 35 34 33 31 30 28 25 25 25 24 23 22 23 25 25 24 25 25 24 22 20 20 20 18 17 16 14 13 13 12 11 11 10 9 9 9 9 9 9 9 9 9 10 11 12 12 12 12 12 12 11 10 10 9 8 8 7 7 7 7 8 9
11 6 8 7 6 7 12 16 16 16 13 10 10 12 14 11 12 12 7 6 6 5 5 5 7 10 12 11 12 19 26 29 32 34 34 35 35 34 31 29 28 27 26 25 24 24 23 24 25 25 24 25 26 24 21 20 20 21 19 17 16 15 14 14 12 12 12 10 9 9 9 9 9 9 9 9 9 9 10 11 11 11 11 11 11 10 9 8 7 7 6 5 4 4 4 5 6
8 9 7 4 8 8 13 18 22 22 18 12 8 8 10 11 12 12 10 7 5 7 11 11 10 15 18 16 17 23 28 31 33 34 34 35 35 32 29 28 27 25 25 25 25 24 24 24 25 24 24 25 25 23 22 20 21 21 18 17 17 16 15 15 13 13 12 10 9 9 10 9 9 9 9 9 9 9 9 9 9 9 8 8 7 7 6 5 5 4 3 3 3 3 4 5 6
5 8 4 5 11 9 12 20 21 21 18 11 7 7 9 10 9 13 13 7 5 7 12 13 14 16 18 19 21 25 29 32 34 35 36 36 33 30 28 28 26 25 26 25 25 24 24 24 24 24 24 24 23 22 22 21 21 20 17 17 16 15 15 15 14 14 13 10 10 10 10 9 9 9 9 9 9 9 9 8 8 7 7 6 6 5 4 3 3 3 3 3 3 3 4 5 6
6 6 3 6 12 9 10 18 20 19 16 9 7 7 8 9 6 11 13 6 4 5 7 10 14 15 16 19 24 28 31 33 35 35 35 34 31 28 28 28 27 26 25 24 24 23 23 23 23 23 23 24 22 22 21 20 20 19 17 16 15 15 16 15 15 15 13 11 11 10 9 9 10 10 9 9 9 9 8 8 8 8 7 6 6 5 3 3 2 2 1 1 2 2 3 5 6
9 5 3 7 12 10 10 15 18 18 15 9 8 6 7 8 5 8 9 6 5 4 5 8 13 15 17 19 25 29 31 33 34 34 33 31 29 28 28 28 28 26 24 24 23 23 22 22 22 22 22 23 22 20 19 17 18 17 16 16 16 16 15 15 16 15 13 12 11 10 8 8 9 9 9 8 8 8 7 7 6 6 6 5 4 4 2 1 1 1 1 2 2 3 4 5 6
13 7 3 5 9 11 13 12 13 13 12 10 8 5 5 5 4 5 6 6 5 4 6 9 12 17 19 21 25 28 30 32 33 33 33 32 31 31 30 30 28 26 23 23 23 23 22 21 22 22 22 23 22 18 17 16 16 16 16 16 16 15 15 16 16 15 13 12 10 9 8 7 7 7 7 7 7 7 6 5 5 4 4 3 2 1 1 0 2 2 2 2 3 3 3 4 5
12 10 5 5 5 10 16 14 12 9 8 10 8 4 7 8 5 4 8 8 5 6 8 10 14 18 20 22 24 27 30 32 33 33 33 33 34 33 31 30 28 25 22 22 23 23 21 20 21 22 22 22 21 17 16 15 14 15 16 16 16 14 15 16 16 14 12 10 9 9 8 8 8 6 7 7 6 6 5 4 4 3 3 2 1 1 1 1 3 3 3 3 4 4 5 6 7
6 12 11 9 6 8 14 16 15 10 5 8 7 4 6 8 8 5 7 10 8 9 11 12 16 18 20 20 22 26 29 32 32 33 33 34 35 33 31 31 29 26 23 23 23 22 21 20 21 23 22 21 20 17 15 15 13 15 16 15 15 14 15 17 15 13 11 9 8 8 7 9 8 7 7 6 6 6 5 4 4 4 3 3 2 2 2 2 3 3 3 4 5 6 7 8 9
2 9 12 13 12 10 12 11 12 11 7 9 8 4 4 5 7 6 8 12 12 13 14 15 17 18 19 19 21 25 28 30 29 32 33 33 34 34 32 31 30 26 23 24 23 22 21 20 21 23 22 20 20 17 14 14 13 14 16 15 15 14 15 16 14 12 10 8 7 7 7 8 8 6 6 5 5 5 4 4 3 3 3 3 2 1 1 2 3 4 5 5 6 8 9 10 11
3 4 6 10 12 14 16 10 8 10 7 10 11 6 9 8 7 8 12 14 15 16 16 17 18 18 18 19 21 22 24 24 25 31 33 32 33 33 31 30 28 26 23 23 23 23 21 20 21 22 22 19 19 18 14 14 13 15 16 15 15 15 15 15 14 12 9 7 6 5 6 7 8 6 5 4 4 4 3 3 2 2 2 2 1 1 2 3 4 5 6 6 8 9 10 10 11
7 4 4 5 8 11 18 14 9 11 7 12 15 7 11 10 9 12 15 17 18 17 17 19 20 18 18 19 20 20 20 20 24 31 31 31 33 32 30 29 27 25 24 24 24 24 22 21 21 22 22 19 18 17 14 14 15 16 16 15 15 15 16 15 13 11 8 7 5 5 5 6 7 6 5 4 3 2 2 1 1 1 1 1 1 2 3 3 4 5 6 7 8 9 9 9 10
7 5 4 6 7 5 13 17 13 11 8 15 17 9 8 7 9 14 16 20 21 20 20 21 21 20 20 19 20 20 20 20 25 31 30 30 32 31 30 29 26 25 24 24 24 24 23 21 21 21 22 19 18 18 16 15 16 16 16 15 16 16 16 14 12 10 8 6 6 5 5 5 6 6 4 3 2 1 0 0 0 0 0 1 2 2 3 3 4 5 6 6 7 9 9 9 9
7 8 7 9 9 3 8 15 17 14 8 13 16 8 5 5 7 14 18 22 22 21 22 23 23 23 22 21 20 20 19 20 24 28 29 29 30 30 30 28 26 25 24 25 24 25 23 22 21 19 21 20 19 19 18 17 17 16 16 15 16 16 15 13 12 10 8 7 6 5 5 4 4 3 3 2 1 1 0 1 1 1 1 2 2 3 3 3 4 4 5 6 7 9 9 9 8
8 10 8 10 11 6 5 8 15 18 10 10 15 6 2 3 8 15 19 23 23 21 22 24 25 25 24 23 21 19 18 20 23 26 28 28 29 30 31 28 26 25 25 25 25 25 24 23 21 19 20 20 20 20 18 17 17 17 16 16 17 16 15 14 12 10 9 8 6 5 4 3 2 2 2 1 1 1 1 1 1 1 2 2 3 3 4 4 4 5 6 7 8 8 8 8 8
9 11 7 6 11 10 6 4 8 18 15 12 14 8 2 2 9 18 20 23 23 21 23 25 25 25 26 24 22 21 19 19 24 26 25 26 29 30 30 28 26 25 25 26 25 25 25 23 22 21 20 20 21 21 19 18 17 18 17 17 17 17 16 14 11 9 9 8 6 5 3 2 1 2 2 1 1 2 2 2 2 2 2 3 4 4 4 4 4 6 7 8 8 8 8 8 7
8 10 7 4 8 11 10 5 7 16 18 15 14 13 8 2 7 17 20 24 24 23 24 25 26 26 26 25 24 24 21 20 22 23 24 26 29 29 28 27 25 25 25 25 26 25 26 25 23 22 20 20 20 20 20 19 19 19 18 18 18 17 15 13 11 9 9 8 6 5 3 2 2 2 2 2 2 2 2 2 2 3 3 4 5 5 5 5 6 6 7 8 9 9 9 9 8
6 8 6 6 7 9 10 6 8 16 16 15 15 15 13 7 8 13 18 23 24 23 22 23 25 24 24 25 24 25 25 22 19 22 26 28 28 27 26 26 25 25 25 25 25 26 26 25 23 22 20 19 19 19 20 21 21 20 19 19 18 16 14 12 11 10 10 9 7 5 3 3 3 3 3 2 2 2 1 1 2 3 4 4 5 5 6 6 7 7 7 8 9 10 10 9 9
7 9 8 8 7 7 9 7 8 13 13 13 16 15 14 12 11 12 17 20 20 20 20 21 23 22 22 25 26 29 28 22 18 23 28 28 28 26 24 26 25 24 25 25 24 26 26 25 24 22 20 19 19 20 21 22 23 21 20 19 17 14 13 13 12 11 10 9 7 6 5 5 4 3 3 2 2 1 1 1 2 3 3 4 5 6 6 7 7 7 8 9 9 10 10 10 9
3 10 10 8 8 6 9 10 8 9 10 9 11 14 15 13 11 13 16 17 17 20 21 23 24 23 22 25 28 30 27 23 23 25 27 26 28 29 26 25 26 25 25 25 24 25 25 24 23 22 20 20 20 21 22 22 22 20 18 17 15 14 14 14 14 12 10 9 8 8 8 6 5 4 3 3 2 1 1 1 1 2 3 4 6 7 7 7 7 8 9 10 10 10 11 11 11
2 6 10 8 7 5 6 9 7 9 8 5 9 12 11 10 11 13 15 17 18 22 25 25 26 26 24 24 27 29 26 26 28 28 26 23 25 29 28 26 26 25 24 24 24 24 24 23 23 22 20 20 20 21 21 21 20 17 15 15 16 16 15 14 14 13 11 10 8 8 7 6 5 4 4 3 3 2 1 1 1 2 4 5 7 8 8 8 9 9 10 10 10 11 12 11 10
4 3 8 8 8 7 6 7 7 7 4 2 10 11 6 6 8 10 15 18 17 20 24 25 25 27 27 26 25 26 27 29 31 29 24 22 22 24 26 26 26 26 25 24 23 23 24 23 22 21 20 19 20 20 22 21 18 17 16 15 16 16 14 14 14 13 11 9 7 7 6 5 5 5 4 4 3 2 2 2 1 3 5 7 8 8 8 9 9 10 9 9 9 10 9 9 8
7 4 5 6 10 9 4 5 7 6 2 3 10 8 4 6 9 9 12 15 15 18 21 22 23 25 25 25 23 23 27 30 32 29 23 22 21 20 22 26 27 26 26 25 22 22 22 20 19 21 20 20 20 21 23 21 18 18 17 16 17 17 14 14 13 11 10 9 7 6 6 7 6 5 4 4 3 3 3 2 2 4 6 8 8 8 8 9 9 9 8 8 7 7 7 7 8
8 7 7 4 8 11 5 8 10 7 5 7 10 7 4 6 10 10 10 10 12 15 17 20 24 25 23 24 25 24 25 28 30 28 24 22 21 18 18 22 26 26 26 25 22 21 20 17 19 22 22 21 22 23 23 21 19 18 17 16 17 17 15 13 11 9 10 9 6 6 7 7 6 4 4 4 3 3 2 2 5 6 8 8 8 7 7 8 8 7 7 7 6 7 7 8 8
7 6 8 6 4 8 8 9 10 7 5 7 9 8 4 4 9 11 11 11 12 13 14 18 23 24 24 25 27 27 25 26 29 29 26 24 23 20 17 18 23 25 26 25 22 22 21 18 19 21 22 23 23 22 22 20 18 17 17 16 16 15 14 12 10 9 10 9 7 7 7 7 5 4 3 2 2 2 3 5 7 8 9 8 6 5 6 6 7 6 7 7 7 8 8 8 8
7 4 7 9 5 5 7 8 8 3 2 5 7 6 3 4 7 11 13 14 15 15 14 15 18 23 26 26 26 28 25 24 28 30 30 29 27 24 20 18 21 24 25 25 23 23 22 20 20 20 22 23 22 21 20 19 17 17 17 15 14 14 11 10 11 10 11 10 8 8 8 6 6 4 2 1 3 5 6 8 9 9 8 6 4 5 5 6 6 7 7 7 8 8 8 8 8
5 4 6 9 8 5 4 5 5 2 2 7 8 6 5 4 5 10 14 15 16 18 17 16 19 25 29 29 28 26 23 24 28 30 30 30 28 26 22 20 22 24 24 25 23 22 22 21 21 20 20 20 19 19 19 17 17 17 16 15 14 14 12 11 12 12 12 11 10 9 7 6 5 3 1 3 5 7 9 11 11 9 6 3 4 5 6 6 7 7 7 7 8 7 7 8 8
5 7 5 4 5 4 3 3 3 3 5 10 10 10 8 3 4 10 13 15 15 16 15 16 21 26 29 30 30 26 21 22 27 29 29 29 27 24 21 20 23 24 23 22 22 22 22 22 21 19 19 19 18 19 18 18 18 17 14 14 15 15 13 13 14 14 13 12 10 8 8 6 4 2 2 5 6 9 12 12 10 5 2 4 5 6 6 6 7 7 7 7 7 7 9 10 10
7 8 6 4 3 2 2 1 1 3 6 6 11 13 9 4 6 10 11 11 14 13 12 15 20 25 29 29 30 28 23 21 23 26 27 26 25 23 20 21 23 22 20 20 21 22 22 21 20 20 20 18 17 19 19 18 17 15 14 13 13 12 11 12 14 14 13 11 9 9 8 6 3 2 3 6 8 11 12 9 5 1 4 5 5 6 6 7 7 7 7 7 7 9 11 11 12
7 9 8 5 4 2 2 2 1 6 6 3 9 12 9 8 6 8 10 10 13 15 13 16 20 25 29 29 29 29 25 22 21 23 25 25 23 22 21 23 23 22 20 20 22 23 21 20 20 20 18 16 16 18 18 16 15 14 13 12 10 10 10 12 14 13 11 10 9 9 8 5 3 3 5 7 10 11 9 4 1 3 5 5 5 6 6 6 7 7 7 8 9 11 12 12 12
8 10 8 6 6 4 5 6 4 6 3 2 7 12 8 7 3 8 14 13 15 17 16 18 22 26 29 28 28 27 25 25 23 22 25 27 25 23 23 24 24 23 22 22 23 22 22 22 20 17 15 15 17 17 14 12 13 13 13 13 12 11 12 14 14 12 9 8 9 9 7 4 3 4 6 9 10 8 4 1 4 5 5 5 6 6 6 6 7 7 8 9 10 12 12 12 12
12 12 11 10 8 6 8 7 4 4 2 3 5 10 7 4 2 9 17 17 19 22 22 24 23 22 23 25 27 26 25 29 28 25 25 27 27 25 24 25 25 25 24 22 22 23 23 23 20 16 14 15 16 16 12 10 12 13 14 15 14 13 14 15 14 10 7 8 9 7 6 4 3 4 7 9 9 5 1 3 5 5 5 5 6 5 6 7 8 8 8 9 11 12 12 12 14
10 7 7 8 5 4 5 5 4 4 4 4 5 6 5 4 3 6 14 17 21 23 22 19 14 12 15 20 25 26 25 29 31 28 26 26 27 26 26 27 27 26 24 21 22 23 23 21 19 16 14 15 15 14 13 11 12 15 16 15 13 13 14 16 14 9 6 7 7 6 6 5 3 5 8 9 6 1 3 4 5 5 5 5 5 5 6 7 8 8 9 9 11 13 13 14 16
6 1 4 7 4 1 2 1 2 4 4 4 4 3 2 2 1 1 4 9 13 15 13 10 8 10 14 19 25 27 26 28 30 30 28 26 26 27 27 28 27 27 25 23 22 23 22 20 19 17 15 15 15 14 14 13 14 16 16 15 14 15 16 16 14 10 8 9 8 8 7 4 4 6 9 9 3 3 5 5 5 5 5 5 5 6 7 8 8 8 9 11 13 13 13 15 17
5 4 7 5 2 2 2 2 2 2 5 4 3 3 1 2 0 2 2 6 8 11 12 11 11 14 17 20 26 28 26 27 30 30 29 27 27 28 28 28 28 27 26 24 24 23 21 20 19 18 15 15 15 14 14 13 14 16 16 17 16 15 17 16 12 9 10 12 10 10 7 4 5 8 11 6 2 6 7 7 6 6 6 6 6 7 7 8 8 9 11 13 14 13 14 16 17
5 7 6 4 3 1 0 3 2 3 7 3 2 4 4 5 3 2 4 8 9 10 13 14 14 16 19 21 26 28 26 27 30 31 29 27 27 29 29 29 28 27 25 24 23 22 21 19 18 17 16 16 16 15 14 14 15 16 17 19 17 16 17 15 11 10 11 12 12 10 5 3 6 10 10 2 6 7 8 8 7 6 6 6 7 7 8 9 9 10 12 14 14 13 14 16 17
3 4 4 3 4 4 1 2 3 5 5 3 3 3 2 5 4 3 7 11 12 11 12 15 16 18 21 22 25 27 26 28 30 31 31 28 28 29 30 29 28 26 24 23 22 21 20 17 16 14 14 15 16 15 14 13 13 13 13 15 17 16 16 14 13 13 13 12 12 8 4 3 7 11 7 4 8 8 9 8 7 6 6 7 7 8 9 10 10 10 12 14 14 13 14 15 15
0 4 5 1 2 4 2 1 1 3 4 3 4 2 3 5 4 6 11 13 13 13 13 14 17 22 24 24 27 28 29 31 31 31 32 30 28 30 30 29 27 25 24 23 22 20 18 16 15 14 13 13 15 14 13 12 11 10 10 12 15 16 16 16 14 13 12 13 11 7 3 4 9 10 2 7 9 10 10 9 8 7 7 7 8 9 10 10 10 11 13 14 14 13 13 14 14
5 8 8 4 2 1 2 2 0 1 2 3 3 3 4 4 4 8 12 13 14 16 16 15 18 24 24 24 29 30 30 33 31 31 32 30 29 30 29 27 26 24 23 22 21 19 18 16 16 16 14 14 14 14 14 13 12 11 12 12 13 15 16 15 14 14 14 12 9 5 3 5 9 7 3 9 11 11 10 9 9 8 8 8 9 10 11 10 9 11 13 13 13 12 12 13 14
7 6 4 5 5 3 5 6 2 1 0 1 3 3 3 2 2 5 8 8 11 16 18 15 17 23 23 24 30 30 30 32 31 29 30 30 31 30 28 27 26 24 22 21 21 21 20 18 17 17 16 15 16 15 14 14 13 13 16 14 12 15 18 17 16 16 13 10 7 5 3 6 9 3 7 10 11 12 11 10 9 8 9 9 9 10 10 9 9 10 12 12 12 11 11 13 14
Wind_Direction
314 323 335 340 347 338 333 346 341 66 7 271 359 130 142 157 289 11 24 7 347 349 346 14 128 155 216 285 287 256 132 176 222 253 314 317 267 187 173 171 168 173 174 168 172 175 173 174 176 176 174 170 165 163 161 162 164 162 159 155 153 151 150 147 144 143 141 137 133 128 125 121 117 111 98 88 81 82 69 67 96 109 107 109 115 125 130 126 121 121 121 123 127 132 134 131 126
304 313 328 334 342 338 329 360 3 346 358 295 256 121 121 193 306 5 20 13 358 333 324 310 308 317 302 285 197 177 187 185 201 231 274 300 215 174 172 169 169 174 174 171 174 175 174 176 178 176 174 172 167 165 164 165 166 164 161 157 155 153 152 150 148 147 145 141 136 132 128 124 118 111 101 89 80 85 78 75 103 117 115 115 118 124 127 125 122 123 123 124 128 131 130 126 124
295 301 317 324 330 339 356 12 339 216 360 290 296 127 152 166 51 350 357 9 331 314 313 302 304 329 332 286 211 224 263 207 213 236 276 254 174 171 170 168 170 175 175 174 176 176 175 177 179 175 175 174 169 167 166 168 169 166 163 159 157 156 156 153 152 151 149 144 138 134 129 126 120 115 105 92 83 79 79 82 107 123 122 124 125 126 127 126 125 124 125 127 129 130 128 125 125
290 298 310 320 320 341 54 18 126 197 252 272 304 148 175 226 214 297 321 337 335 315 309 313 312 326 314 300 304 299 247 240 243 234 265 188 172 172 168 168 170 175 177 177 178 177 177 179 179 176 176 175 170 170 170 171 171 169 164 161 159 158 159 156 156 154 152 147 141 137 132 129 124 119 107 96 86 78 84 88 110 125 126 131 132 131 131 131 129 128 128 129 131 131 128 128 129
284 298 304 309 300 5 103 57 106 210 240 200 288 180 166 226 240 211 288 332 342 320 285 155 338 315 294 289 299 310 209 252 295 211 210 170 169 173 169 168 171 176 178 179 181 178 180 181 179 177 176 175 173 173 173 174 173 170 167 164 162 161 160 160 159 157 155 150 144 139 135 131 125 119 110 99 87 92 96 93 111 128 130 134 134 134 134 134 133 132 132 133 133 131 130 131 132
275 293 301 305 210 143 146 223 186 226 234 180 264 281 248 248 278 220 190 345 360 22 85 131 320 309 271 268 280 278 227 214 1 230 197 173 168 173 170 167 171 175 177 180 182 181 184 182 180 179 177 176 175 176 176 177 175 171 169 166 164 162 162 162 160 159 157 152 146 140 135 131 125 120 112 100 97 105 104 104 119 130 136 138 137 137 137 136 135 136 136 137 135 133 134 135 135
251 248 247 104 110 127 214 225 210 231 215 174 253 278 291 280 298 311 8 1 48 86 56 336 284 279 264 258 276 277 245 196 3 80 186 178 168 172 170 167 171 176 179 181 181 184 187 184 182 181 180 179 177 178 178 179 177 173 171 169 167 165 164 164 163 161 156 151 144 139 135 131 126 121 117 108 109 114 109 121 133 136 140 144 142 141 140 140 139 139 139 138 137 137 137 137 138
231 220 197 180 118 46 210 213 210 221 212 213 262 263 271 283 297 312 341 347 340 55 341 328 241 254 270 234 227 259 232 178 25 141 175 179 169 171 170 168 173 177 180 181 182 186 188 186 185 184 183 181 180 180 179 180 178 175 173 171 170 167 166 166 164 161 155 150 144 139 135 131 129 125 123 118 113 118 122 132 140 141 144 147 147 145 144 143 142 142 143 143 142 140 138 137 137
210 195 166 197 220 187 196 213 210 218 258 253 262 253 261 279 292 304 316 323 311 302 296 310 229 261 272 210 209 215 200 137 157 154 173 178 170 171 169 170 175 177 179 181 185 187 189 188 188 188 187 184 182 182 180 182 181 178 176 174 172 168 167 168 165 161 154 150 145 140 137 134 133 129 122 117 115 119 129 138 142 143 145 150 152 150 148 148 146 148 149 148 146 142 139 138 137
195 189 165 167 201 217 215 215 202 204 243 252 267 260 265 273 281 293 292 307 305 306 299 295 248 249 258 198 213 217 180 135 158 160 173 177 170 169 168 171 176 178 180 182 186 188 191 189 190 191 189 188 185 183 182 184 184 180 178 177 172 168 168 168 165 160 155 151 147 144 141 141 137 130 116 111 113 116 127 140 144 144 146 151 155 155 154 153 152 153 153 151 149 145 143 142 138
183 177 160 180 207 222 221 220 215 199 233 266 275 261 265 266 273 274 261 282 286 287 288 300 258 224 222 157 203 211 175 151 163 170 175 175 170 169 169 172 176 179 183 186 189 192 192 189 191 191 190 190 187 185 184 185 186 182 181 176 169 168 168 168 165 161 158 154 151 150 146 146 140 129 117 115 115 116 127 140 144 144 147 152 156 159 160 160 158 158 159 157 156 153 151 148 141
186 152 162 219 216 221 219 222 223 212 226 237 256 257 260 250 231 257 257 275 260 274 279 284 272 222 179 143 216 194 171 162 168 176 176 173 171 170 172 174 175 180 186 190 193 195 194 190 188 189 191 192 189 188 187 187 186 183 181 174 169 169 170 169 167 165 162 158 156 155 151 148 143 134 125 123 119 121 130 140 145 144 148 153 157 160 164 166 165 165 165 165 164 162 161 157 149
195 150 173 226 206 210 204 214 223 214 227 212 226 247 254 225 214 252 259 264 209 244 288 284 254 233 158 114 200 184 178 172 170 174 176 174 173 172 174 176 176 183 190 193 196 198 196 190 187 186 191 193 191 189 189 187 185 185 181 173 171 171 172 171 169 168 163 162 161 158 156 153 148 141 135 128 121 125 134 142 146 145 147 151 157 160 164 168 170 170 171 171 171 172 172 170 166
198 175 190 226 194 203 194 206 205 216 229 188 216 239 246 231 223 246 229 259 236 221 286 290 236 220 167 137 194 194 188 179 171 173 176 176 175 175 177 179 181 187 193 197 200 201 197 192 189 189 191 192 192 190 189 187 186 185 179 173 173 174 173 172 170 168 165 164 164 165 163 154 148 141 137 128 122 128 137 144 145 145 146 149 154 158 163 169 173 175 176 177 178 181 183 185 185
200 187 193 225 190 197 201 207 197 220 227 162 212 233 240 239 237 246 244 267 267 212 265 272 206 205 190 190 219 210 191 179 173 174 176 177 177 178 180 182 187 192 197 199 202 205 201 196 194 193 193 193 192 190 188 187 187 183 178 176 176 177 175 172 170 167 166 166 168 170 161 149 144 142 136 129 126 129 138 145 146 145 145 145 147 151 158 166 174 179 182 183 185 190 195 199 202
200 188 185 230 203 198 201 187 189 221 215 175 211 217 222 234 229 235 235 237 189 193 231 191 191 208 244 226 247 229 189 179 173 174 177 177 179 181 184 188 193 197 199 200 205 209 204 202 200 196 195 194 192 191 189 187 187 181 178 179 179 180 175 172 170 168 166 166 170 165 152 144 141 141 136 131 130 131 138 146 146 145 144 142 140 141 146 156 169 179 187 192 195 200 206 212 215
191 189 214 226 205 200 185 168 186 202 186 197 210 205 198 189 180 175 190 194 159 165 195 186 200 220 253 263 268 225 185 178 172 175 178 178 181 184 187 192 195 198 201 202 207 211 208 207 204 200 198 195 192 191 189 187 184 179 178 180 181 182 176 172 171 169 166 164 165 156 146 143 142 141 137 134 132 132 139 145 147 145 143 142 138 135 135 141 155 171 186 197 204 210 216 222 227
180 191 220 221 203 192 171 173 183 170 193 204 207 207 199 190 170 152 148 149 133 124 154 189 209 226 248 269 260 198 183 177 175 178 180 181 183 185 189 192 194 198 200 203 208 212 212 210 205 202 198 193 191 190 189 185 181 178 177 180 182 181 176 175 174 170 167 163 157 150 145 144 141 138 135 135 134 134 139 145 147 145 143 142 140 138 138 141 149 161 177 192 205 215 224 231 236
189 183 218 220 194 176 170 180 179 172 201 199 208 209 202 207 183 165 168 159 146 130 113 180 203 213 233 238 202 187 182 178 180 182 183 184 186 188 190 191 194 198 201 205 209 211 214 212 206 202 197 192 190 189 189 184 179 178 178 180 183 180 178 178 175 170 167 161 153 147 145 142 136 133 133 134 135 136 141 145 147 145 144 144 146 147 148 152 157 164 171 181 196 209 223 233 240
201 199 222 218 165 176 185 187 189 191 199 200 210 199 196 208 185 176 178 168 174 183 170 175 192 199 208 210 195 187 183 182 183 186 187 188 189 191 191 191 194 199 202 207 210 211 213 212 206 201 196 191 190 189 188 183 181 182 181 183 183 179 181 180 173 170 166 158 150 144 142 136 131 131 131 129 133 137 143 148 150 150 149 150 152 154 156 161 165 171 175 183 196 209 224 236 242
191 203 226 177 153 190 198 194 198 201 204 209 199 167 186 198 184 176 159 161 202 222 214 212 218 213 204 199 195 189 185 186 187 189 191 191 193 194 193 194 198 201 203 207 210 211 212 211 205 200 195 191 191 189 186 185 186 185 183 185 184 180 181 177 172 171 165 157 149 141 138 132 129 130 128 125 126 130 137 145 150 151 150 150 151 154 157 162 167 173 180 198 217 231 243 248 249
185 213 232 143 171 195 195 198 204 205 209 210 175 159 180 182 178 174 171 192 219 221 231 232 236 230 215 202 195 191 188 189 191 192 193 195 196 195 196 199 201 201 202 207 210 210 212 211 206 200 195 192 191 188 187 189 189 187 187 188 185 181 180 176 173 170 164 158 150 142 138 134 132 131 127 124 121 120 123 127 132 132 130 128 129 133 139 148 160 175 187 208 228 245 255 260 259
218 225 212 175 189 192 188 200 208 207 209 205 182 181 171 160 161 175 186 211 199 212 240 235 236 234 221 206 196 194 193 194 195 195 196 197 198 198 199 201 201 201 202 206 209 209 211 210 206 201 197 193 189 188 190 191 190 190 190 189 186 183 182 177 172 169 165 159 155 151 144 141 139 135 129 124 120 117 115 117 118 117 116 113 112 113 115 129 147 166 198 233 255 269 273 274 274
230 230 188 197 199 196 192 198 210 212 211 203 192 184 154 157 170 181 196 214 203 220 240 232 230 219 210 206 201 199 197 198 199 198 199 199 200 202 204 203 202 202 202 204 207 209 211 209 205 202 198 193 189 189 190 191 192 192 192 191 188 186 183 177 172 169 165 158 158 161 155 152 149 144 137 131 126 122 119 118 117 118 117 114 113 111 106 115 163 218 293 305 299 295 290 290 291
228 224 161 196 206 205 206 207 213 215 217 215 207 194 180 189 197 193 202 210 207 207 223 227 216 204 204 209 205 200 198 199 200 201 201 201 202 205 206 205 204 203 202 205 208 210 210 207 204 203 199 193 191 190 190 193 195 192 191 192 189 187 184 177 174 171 166 162 160 162 163 167 166 158 150 143 137 132 131 128 127 130 129 130 125 121 138 281 296 303 314 316 317 320 323 325 327
216 209 183 194 207 206 213 225 227 214 213 217 212 208 228 233 222 215 212 217 220 202 213 213 200 198 202 207 206 201 200 199 200 202 203 203 205 207 207 206 207 205 204 206 210 211 210 205 201 202 199 195 193 190 191 195 196 193 191 192 189 188 184 178 177 175 170 167 163 164 169 176 175 170 161 153 147 142 142 142 144 149 154 173 183 236 265 307 312 315 325 330 337 344 350 350 349
192 200 204 210 211 208 214 227 232 223 211 207 196 189 227 221 211 216 201 211 218 196 201 198 194 198 199 202 202 201 202 202 202 204 206 206 208 210 209 209 209 207 206 207 211 211 208 204 201 201 200 197 193 190 193 196 198 196 192 193 190 189 187 181 181 180 174 168 163 162 169 175 173 165 162 159 158 155 151 151 155 162 174 196 202 240 278 334 337 337 340 344 353 355 359 359 357
177 190 201 211 216 225 222 223 226 222 223 209 197 216 232 191 202 214 182 192 195 185 192 194 195 198 198 199 199 201 204 203 203 206 209 210 211 212 212 213 211 209 210 209 212 211 207 204 202 203 202 200 196 191 193 195 196 196 193 192 191 190 188 183 183 182 177 170 163 160 163 172 172 163 159 161 168 165 158 157 161 164 171 185 189 219 320 8 355 348 349 352 358 0 1 360 357
222 178 194 206 210 226 222 212 203 203 218 197 183 232 241 201 191 201 187 181 177 181 190 194 199 199 198 200 200 202 204 203 205 209 212 214 216 216 216 218 213 210 211 210 212 210 206 204 204 205 205 203 199 194 195 195 194 195 194 194 191 190 188 186 187 184 180 177 174 173 172 177 178 171 162 160 166 167 164 162 158 166 163 158 143 51 25 19 3 354 355 357 359 358 356 355 351
216 204 215 199 201 225 216 208 194 192 211 180 172 224 234 199 184 186 184 176 169 182 194 196 202 200 198 201 202 204 205 204 208 212 213 215 219 219 221 219 213 210 211 211 212 209 207 205 205 206 206 204 199 196 197 195 195 196 196 195 191 189 190 190 191 189 184 181 185 195 194 191 186 180 171 159 159 165 168 157 153 180 143 95 61 33 25 18 3 355 357 355 353 351 348 346 344
195 188 213 208 208 211 197 200 188 186 211 181 179 232 230 174 178 181 177 175 173 182 195 200 202 201 201 201 203 206 207 207 212 215 215 218 219 220 222 219 212 211 211 212 213 210 209 208 207 206 207 206 199 198 200 197 197 197 195 193 190 190 191 193 195 194 186 181 189 195 190 184 179 177 174 164 165 177 144 130 198 247 351 15 25 24 17 9 353 348 351 348 344 343 341 341 342
184 187 204 207 210 179 170 193 190 185 198 187 188 230 228 167 175 180 177 179 180 184 193 201 202 203 202 201 205 207 210 214 214 217 219 220 220 220 221 217 213 212 211 213 215 213 211 210 209 208 208 208 202 202 204 200 198 196 193 189 188 191 192 195 199 194 185 185 185 175 159 152 157 163 172 180 196 214 304 219 242 298 327 344 355 359 353 345 338 339 343 342 338 336 339 342 345
195 206 207 194 200 195 156 182 196 188 172 194 208 217 190 174 171 176 180 182 185 189 194 201 204 205 205 206 208 208 212 216 216 218 220 220 221 222 221 216 213 211 211 214 216 216 215 212 211 210 211 209 205 204 203 200 199 196 192 188 189 193 196 199 199 191 187 188 179 164 149 136 148 171 192 207 232 268 268 237 245 290 323 332 329 328 330 329 331 338 339 338 335 334 338 341 343
196 208 210 187 191 191 170 150 187 188 180 196 215 217 200 139 168 174 181 186 188 193 198 202 205 205 208 209 209 211 214 216 218 219 219 219 221 222 221 218 215 212 212 215 217 219 217 214 212 212 213 212 210 207 202 200 199 196 192 190 193 198 201 200 196 192 194 191 184 179 171 164 183 210 242 254 256 267 265 253 251 274 306 313 308 313 320 324 328 333 335 333 332 332 333 336 340
197 194 197 169 173 185 189 167 157 184 193 196 199 212 215 150 167 179 182 187 191 197 201 203 205 205 207 209 211 214 216 218 220 218 218 220 221 223 222 219 217 214 214 216 217 220 219 216 213 214 214 215 216 209 201 199 198 195 193 194 198 201 202 200 197 198 199 197 199 197 191 210 218 220 246 265 264 260 259 257 257 273 295 299 302 313 318 320 325 330 333 331 330 331 333 338 345
180 168 182 173 166 188 194 179 166 179 191 199 195 203 206 178 175 187 186 190 195 200 202 204 207 207 208 210 213 216 220 221 220 221 222 221 221 224 223 221 219 215 215 216 217 219 220 217 215 215 214 216 220 212 202 200 196 194 194 197 202 204 204 204 205 203 203 208 212 208 205 221 226 220 236 253 251 249 257 271 271 280 293 300 307 315 316 319 324 328 333 331 331 334 337 343 345
154 157 182 188 180 185 187 183 181 181 188 200 197 197 200 188 181 188 189 192 199 202 201 205 208 207 206 209 214 218 222 222 219 224 225 224 224 225 222 220 219 215 214 216 216 219 220 218 217 215 213 217 221 216 208 201 194 193 197 202 206 209 211 213 212 209 211 217 217 211 206 211 215 214 223 224 221 230 267 283 283 291 299 308 310 313 318 322 327 331 334 333 334 336 337 340 339
165 177 182 189 197 186 186 189 177 183 199 197 190 196 198 189 181 185 189 192 200 203 201 204 206 206 207 210 216 219 222 221 220 225 226 224 227 228 224 219 219 217 216 217 216 217 219 218 216 215 214 217 219 217 211 200 194 196 201 206 209 213 216 218 220 220 219 223 222 209 198 196 201 201 205 202 192 195 214 255 289 307 310 311 313 319 324 327 331 335 337 337 337 337 338 341 342
304 191 183 186 193 168 181 197 176 180 205 187 179 199 199 187 186 186 190 195 201 204 204 206 205 205 207 210 215 217 218 219 222 226 224 221 226 230 226 219 219 218 218 219 216 216 218 217 215 214 214 217 218 213 202 193 193 200 206 210 215 219 222 225 224 222 223 229 225 207 191 186 191 192 187 179 173 187 201 238 289 310 312 314 319 323 324 327 333 338 340 340 340 341 341 343 349
246 210 193 185 173 171 187 196 178 169 202 175 174 196 202 183 192 193 196 200 203 207 209 210 207 209 212 213 217 216 216 219 222 223 221 219 221 226 224 218 217 218 220 221 219 216 214 213 214 215 214 215 214 204 194 193 197 205 211 215 222 225 230 236 230 224 228 229 213 196 187 174 174 175 169 167 176 196 205 219 274 311 316 318 319 320 324 332 340 343 346 347 345 345 344 349 1
222 226 217 185 169 187 183 148 154 148 178 163 160 186 216 193 194 194 199 205 208 208 207 207 209 214 218 219 222 219 218 221 222 221 219 218 215 213 216 216 214 217 221 223 221 218 212 211 216 217 214 210 206 199 194 196 202 207 209 211 218 221 229 236 231 238 245 231 211 196 178 165 168 174 177 181 190 194 196 220 308 319 316 316 316 322 334 343 349 351 353 354 354 353 357 9 14
214 222 230 218 179 192 165 128 150 163 199 184 165 189 207 192 198 191 187 200 205 203 204 208 210 214 217 220 223 222 221 222 224 222 217 216 213 205 207 214 215 216 221 222 220 221 220 217 217 216 211 205 203 200 199 202 206 209 207 208 214 216 221 227 227 242 242 228 226 207 178 173 179 186 191 193 196 205 229 304 324 317 310 311 317 333 348 355 357 359 1 2 6 9 14 21 20
208 208 206 215 190 188 176 158 171 183 193 183 191 212 197 183 207 195 185 192 195 195 204 212 211 212 216 219 221 222 220 219 221 222 219 219 218 211 206 211 217 216 217 219 217 222 225 221 218 216 209 205 205 205 207 211 212 213 211 212 220 221 222 223 221 227 221 218 232 216 192 185 181 183 195 204 234 271 303 319 318 311 307 312 327 352 6 10 10 10 10 13 20 22 25 28 25
198 162 171 190 191 176 171 174 193 199 116 162 198 222 221 210 203 188 185 195 200 200 205 211 208 211 217 218 218 219 216 213 215 217 221 225 224 222 214 210 217 215 213 215 216 221 224 220 221 218 210 208 209 210 216 219 218 218 213 212 223 228 227 224 215 207 207 217 229 215 201 192 184 188 199 279 312 314 321 323 317 309 309 321 355 22 28 26 21 19 18 25 29 29 34 35 35
177 154 163 183 194 188 165 172 186 153 170 193 189 192 212 212 172 175 185 196 205 206 207 209 210 214 218 218 218 217 215 214 216 217 220 223 226 226 218 212 217 215 212 215 215 219 221 220 220 217 213 209 208 214 220 222 222 221 215 216 225 223 217 217 211 203 207 221 227 217 209 204 201 210 264 320 319 323 323 319 313 307 314 1 40 45 42 32 28 29 30 37 38 38 45 47 49
150 156 152 151 182 196 203 209 162 133 213 209 180 180 206 201 159 182 188 196 205 206 208 211 214 217 219 219 217 215 212 212 215 218 220 222 225 222 212 212 218 215 213 214 212 215 219 219 217 215 213 209 209 218 222 221 223 222 220 228 231 218 205 205 205 203 211 221 227 224 220 217 217 236 304 313 315 317 316 312 309 310 3 54 60 53 45 37 36 40 41 45 48 51 58 61 63
134 150 157 132 147 169 201 243 99 187 227 202 169 181 207 216 191 192 191 194 197 196 203 211 214 218 220 220 216 212 211 209 208 212 215 219 221 217 210 213 218 215 210 209 209 212 214 215 214 213 214 213 214 221 222 222 226 229 231 234 228 216 210 207 206 208 214 221 226 224 221 221 229 260 294 308 312 312 312 311 312 9 71 73 68 56 50 47 47 48 47 51 57 61 66 67 70
162 173 181 167 161 150 164 150 173 218 219 163 162 176 201 221 201 190 195 193 191 195 201 205 210 216 216 216 215 212 211 208 202 201 206 211 212 211 213 216 218 214 206 203 208 212 212 213 213 213 214 211 213 221 223 226 233 235 233 226 210 209 222 218 212 215 221 225 224 219 218 223 247 283 304 310 310 312 316 319 38 91 87 80 70 60 56 56 54 52 52 56 61 66 70 71 74
192 186 180 182 178 166 185 184 193 214 204 84 162 168 190 234 207 183 198 197 196 201 204 204 207 212 212 210 211 210 208 208 205 201 204 211 211 208 210 214 214 212 209 208 211 213 213 215 216 216 214 209 211 222 227 229 232 229 220 210 202 208 219 214 211 217 228 231 221 215 224 242 265 292 310 313 313 318 327 75 107 101 93 80 72 66 63 61 58 55 56 61 68 72 75 76 75
196 191 186 188 180 175 191 189 181 185 150 60 162 173 189 232 182 183 196 200 201 203 208 210 208 207 205 203 205 207 206 210 212 209 206 209 211 209 209 210 210 211 211 209 211 213 213 217 220 219 215 212 216 223 225 217 215 216 209 201 200 206 210 207 207 214 228 227 216 217 234 244 263 292 309 317 322 328 42 122 113 104 97 85 78 73 68 65 61 60 64 72 77 78 78 76 69
199 200 191 194 194 191 188 179 168 153 127 102 149 184 189 172 161 187 195 201 202 203 208 211 205 196 190 192 202 206 205 208 211 211 207 206 208 210 210 209 209 211 210 206 208 213 215 217 221 220 214 214 220 221 218 210 205 206 202 194 197 203 203 202 201 208 224 218 217 225 221 221 257 292 312 323 328 322 142 129 123 115 105 96 88 80 73 70 68 70 79 84 83 80 77 72 67
204 214 193 204 206 168 75 95 133 113 115 132 160 212 229 158 49 5 193 197 200 205 210 202 186 180 180 187 200 204 203 205 209 209 209 208 207 208 207 205 206 209 210 209 211 214 216 216 217 217 214 215 221 218 214 210 204 204 196 185 190 196 195 198 200 205 211 207 213 217 208 226 282 302 321 325 315 165 149 136 134 129 118 108 98 87 79 77 79 84 89 88 83 80 76 70 66
173 189 195 192 121 98 110 110 44 92 161 160 170 213 228 184 211 24 149 174 185 205 207 200 189 179 179 190 199 202 200 202 205 206 206 205 203 203 203 203 205 207 208 211 213 214 217 218 215 212 210 213 217 215 210 202 198 205 195 177 180 192 195 197 199 204 207 206 209 206 207 261 292 309 323 317 194 161 152 144 142 137 126 113 99 92 88 87 89 93 93 88 82 79 75 70 66
162 191 180 120 73 12 345 146 118 171 180 163 173 199 190 180 174 72 165 180 188 198 198 197 191 182 186 193 197 199 196 198 202 202 202 202 200 201 203 204 207 208 208 209 212 214 214 217 216 211 208 210 213 212 208 198 195 200 192 174 173 186 193 195 201 207 207 208 208 202 210 270 298 315 320 277 167 160 152 146 146 140 128 114 102 96 95 93 94 95 93 88 83 77 71 69 66
194 184 149 124 184 201 196 155 169 177 176 156 167 204 221 198 187 154 176 192 195 190 189 190 189 190 194 193 193 193 190 194 198 197 199 201 199 200 203 205 207 209 209 208 210 213 209 209 214 212 208 209 214 215 206 197 192 191 186 176 174 181 189 196 204 205 203 205 205 200 217 279 306 319 316 176 163 160 152 146 147 141 125 114 108 102 98 96 98 97 92 88 83 76 69 68 66
21 171 168 191 226 203 190 148 173 184 178 161 162 185 223 212 200 178 184 196 196 185 184 187 190 197 196 188 188 188 186 191 192 189 194 198 199 201 202 203 204 206 208 208 211 214 209 203 206 209 210 210 209 206 197 192 189 183 179 179 178 183 190 194 200 206 209 207 198 192 228 285 309 320 290 169 161 155 150 147 146 139 124 117 113 106 99 99 102 97 90 87 82 75 69 67 66
177 186 183 177 176 213 224 206 78 170 183 171 175 197 208 198 194 192 193 195 191 183 184 189 195 197 191 184 185 184 183 188 187 184 188 193 195 198 200 203 205 205 207 207 207 207 201 200 206 209 209 204 193 188 189 191 188 183 182 182 185 190 194 198 205 208 206 197 189 197 248 293 311 313 188 166 158 152 152 151 146 138 129 122 114 106 102 102 103 96 91 88 83 78 72 69 68
179 188 181 181 181 170 200 203 164 71 231 183 184 209 213 177 180 211 207 200 193 188 187 191 194 190 183 182 185 182 179 184 185 182 186 190 192 193 195 197 198 200 201 201 199 196 194 201 210 208 202 195 186 184 190 193 191 190 190 189 194 199 201 203 202 199 194 193 202 221 248 301 309 280 168 163 159 155 153 151 147 141 132 123 114 107 105 105 104 97 94 90 86 81 75 72 70